Time,TemperatureF,DewpointF,PressureIn,WindDirection,WindDirectionDegrees,WindSpeedMPH,WindSpeedGustMPH,Humidity,HourlyPrecipIn,Conditions,Clouds,dailyrainin,SoftwareType,DateUTC
2013-07-15 00:00:00,65.0,50.0,-100.00,East,79,4.0,6.0,57,-99.99,,,-99.99,,2013-07-15 06:00:00,
2013-07-15 00:32:00,65.0,50.0,-100.00,East,79,4.0,6.0,57,-99.99,,,-99.99,,2013-07-15 06:32:00,
2013-07-15 00:42:00,65.0,50.0,-100.00,East,79,4.0,6.0,57,-99.99,,,-99.99,,2013-07-15 06:42:00,
2013-07-15 00:53:00,65.0,50.0,-100.00,East,79,4.0,6.0,57,-99.99,,,-99.99,,2013-07-15 06:53:00,
2013-07-15 01:44:00,65.0,49.0,-100.00,East,91,4.0,7.0,57,-99.99,,,-99.99,,2013-07-15 07:44:00,
2013-07-15 01:53:00,65.0,49.0,-100.00,East,91,4.0,7.0,57,-99.99,,,-99.99,,2013-07-15 07:53:00,
2013-07-15 02:32:00,64.0,49.0,-100.00,SE,144,3.0,4.0,57,-99.99,,,-99.99,,2013-07-15 08:32:00,
2013-07-15 02:43:00,64.0,49.0,-100.00,SE,144,3.0,4.0,57,-99.99,,,-99.99,,2013-07-15 08:43:00,
2013-07-15 03:00:00,64.0,49.0,-100.00,South,185,3.0,4.0,57,-99.99,,,-99.99,,2013-07-15 09:00:00,
2013-07-15 03:32:00,64.0,49.0,-100.00,South,185,3.0,4.0,57,-99.99,,,-99.99,,2013-07-15 09:32:00,
2013-07-15 03:43:00,64.0,49.0,-100.00,South,185,3.0,4.0,57,-99.99,,,-99.99,,2013-07-15 09:43:00,
2013-07-15 03:52:00,64.0,49.0,-100.00,South,185,3.0,4.0,57,-99.99,,,-99.99,,2013-07-15 09:52:00,
2013-07-15 04:00:00,64.0,48.0,-100.00,South,177,1.0,3.0,57,-99.99,,,-99.99,,2013-07-15 10:00:00,
2013-07-15 04:32:00,64.0,48.0,-100.00,South,177,1.0,3.0,57,-99.99,,,-99.99,,2013-07-15 10:32:00,
2013-07-15 04:43:00,64.0,48.0,-100.00,South,177,1.0,3.0,57,-99.99,,,-99.99,,2013-07-15 10:43:00,
2013-07-15 04:53:00,64.0,48.0,-100.00,South,177,1.0,3.0,57,-99.99,,,-99.99,,2013-07-15 10:53:00,
2013-07-15 05:00:00,63.0,48.0,-100.00,WSW,257,3.0,3.0,56,-99.99,,,-99.99,,2013-07-15 11:00:00,
2013-07-15 05:32:00,63.0,48.0,-100.00,WSW,257,3.0,3.0,56,-99.99,,,-99.99,,2013-07-15 11:32:00,
2013-07-15 05:42:00,63.0,48.0,-100.00,WSW,257,3.0,3.0,56,-99.99,,,-99.99,,2013-07-15 11:42:00,
2013-07-15 05:52:00,63.0,48.0,-100.00,WSW,257,3.0,3.0,56,-99.99,,,-99.99,,2013-07-15 11:52:00,
2013-07-15 06:00:00,64.0,48.0,-100.00,West,267,5.0,7.0,56,-99.99,,,-99.99,,2013-07-15 12:00:00,
2013-07-15 06:33:00,64.0,48.0,-100.00,West,267,5.0,7.0,56,-99.99,,,-99.99,,2013-07-15 12:33:00,
2013-07-15 06:42:00,64.0,48.0,-100.00,West,267,5.0,7.0,56,-99.99,,,-99.99,,2013-07-15 12:42:00,
2013-07-15 06:53:00,64.0,48.0,-100.00,West,267,5.0,7.0,56,-99.99,,,-99.99,,2013-07-15 12:53:00,
2013-07-15 07:00:00,65.0,50.0,-100.00,West,260,6.0,8.0,57,-99.99,,,-99.99,,2013-07-15 13:00:00,
2013-07-15 07:43:00,65.0,50.0,-100.00,West,260,6.0,8.0,57,-99.99,,,-99.99,,2013-07-15 13:43:00,
2013-07-15 07:53:00,65.0,50.0,-100.00,West,260,6.0,8.0,57,-99.99,,,-99.99,,2013-07-15 13:53:00,
2013-07-15 08:33:00,67.0,52.0,-100.00,South,179,2.0,5.0,58,-99.99,,,-99.99,,2013-07-15 14:33:00,
2013-07-15 08:42:00,67.0,52.0,-100.00,South,179,2.0,5.0,58,-99.99,,,-99.99,,2013-07-15 14:42:00,
2013-07-15 09:00:00,68.0,53.0,-100.00,SSW,202,3.0,5.0,59,-99.99,,,-99.99,,2013-07-15 15:00:00,
2013-07-15 09:41:00,68.0,53.0,-100.00,SSW,202,3.0,5.0,59,-99.99,,,-99.99,,2013-07-15 15:41:00,
2013-07-15 09:48:00,68.0,53.0,-100.00,SSW,202,3.0,5.0,59,-99.99,,,-99.99,,2013-07-15 15:48:00,
2013-07-15 09:53:00,68.0,53.0,-100.00,SSW,202,3.0,5.0,59,-99.99,,,-99.99,,2013-07-15 15:53:00,
2013-07-15 10:00:00,69.0,54.0,-100.00,SW,218,4.0,6.0,60,-99.99,,,-99.99,,2013-07-15 16:00:00,
2013-07-15 10:33:00,69.0,54.0,-100.00,SW,218,4.0,6.0,60,-99.99,,,-99.99,,2013-07-15 16:33:00,
2013-07-15 10:48:00,69.0,54.0,-100.00,SW,218,4.0,6.0,60,-99.99,,,-99.99,,2013-07-15 16:48:00,
2013-07-15 12:00:00,70.0,56.0,-100.00,WSW,248,6.0,10.0,61,-99.99,,,-99.99,,2013-07-15 18:00:00,
2013-07-15 12:40:00,70.0,56.0,-100.00,WSW,248,6.0,10.0,61,-99.99,,,-99.99,,2013-07-15 18:40:00,
2013-07-15 20:54:00,75.0,61.0,-100.00,West,260,4.0,8.0,62,-99.99,,,-99.99,,2013-07-16 02:54:00,
2013-07-15 21:40:00,74.0,59.0,-100.00,North,351,5.0,9.0,59,-99.99,,,-99.99,,2013-07-16 03:40:00,
2013-07-15 21:57:00,74.0,59.0,-100.00,North,351,5.0,9.0,59,-99.99,,,-99.99,,2013-07-16 03:57:00,
2013-07-15 22:43:00,69.0,54.0,-100.00,NE,41,6.0,7.0,59,-99.99,,,-99.99,,2013-07-16 04:43:00,
2013-07-15 22:53:00,69.0,54.0,-100.00,NE,41,6.0,7.0,59,-99.99,,,-99.99,,2013-07-16 04:53:00,
2013-07-15 23:32:00,68.0,53.0,-100.00,NE,48,8.0,10.0,58,-99.99,,,-99.99,,2013-07-16 05:32:00,
2013-07-15 23:43:00,68.0,53.0,-100.00,NE,48,8.0,10.0,58,-99.99,,,-99.99,,2013-07-16 05:43:00,